FW6537 Weather Reports


time (UTC)temp
C
wind
direction
speed
KPH
gust
KPH
rain 1hr
cm
rain 24hr
cm
rain mn
cm
humidity
%
barometer
mb
20260504214626 24 76 6.4 14.5 0.00 0.00 0.00 32 1002.8
20260504213136 23 13 3.2 11.3 0.00 0.00 0.00 35 1002.9
20260504211634 24 118 3.2 11.3 0.00 0.00 0.00 35 1003.0
20260504210124 24 58 6.4 12.9 0.00 0.00 0.00 34 1002.8
20260504204643 24 84 4.8 11.3 0.00 0.00 0.00 36 1003.1
20260504203152 23 46 8.0 14.5 0.00 0.00 0.00 36 1003.4
20260504201648 23 88 8.0 16.1 0.00 0.00 0.00 36 1003.6
20260504200139 23 60 6.4 17.7 0.00 0.00 0.00 37 1003.8
20260504194625 23 39 6.4 14.5 0.00 0.00 0.00 37 1003.9
20260504193146 22 4 6.4 17.7 0.00 0.00 0.00 39 1004.2
20260504191649 22 54 6.4 22.5 0.00 0.00 0.00 40 1004.3
20260504190151 22 104 3.2 19.3 0.00 0.00 0.00 42 1004.4
20260504184641 22 86 6.4 16.1 0.00 0.00 0.00 44 1004.6
20260504183131 21 51 9.7 27.4 0.00 0.00 0.00 43 1004.7
20260504181624 21 68 6.4 14.5 0.00 0.00 0.00 43 1004.8
20260504180125 21 73 6.4 9.7 0.00 0.00 0.00 44 1004.9
20260504174657 21 57 3.2 19.3 0.00 0.00 0.00 45 1005.0
20260504173131 21 29 6.4 25.7 0.00 0.00 0.00 45 1005.2
20260504171628 21 43 6.4 27.4 0.00 0.00 0.00 44 1005.0
20260504170200 20 134 6.4 16.1 0.00 0.00 0.00 45 1005.2
20260504160132 19 41 4.8 14.5 0.00 0.00 0.00 47 1006.1
20260504150133 17 48 8.0 12.9 0.00 0.00 0.00 47 1006.5
20260504140125 15 220 6.4 12.9 0.00 0.00 0.00 50 1006.7
20260504130135 13 75 6.4 11.3 0.00 0.00 0.00 51 1007.1
20260504120130 12 30 3.2 11.3 0.00 0.00 0.00 53 1007.3
20260504110207 12 359 3.2 12.9 0.00 0.00 0.00 52 1007.0
20260504100125 11 27 1.6 8.0 0.00 0.00 0.00 53 1007.2
20260504090138 11 61 3.2 11.3 0.00 0.00 0.00 54 1007.2
20260504081657 11 39 4.8 12.9 0.00 0.00 0.00 53 1007.5
20260504080128 11 31 4.8 11.3 0.00 0.00 0.00 53 1007.6
20260504070127 11 82 3.2 9.7 0.00 0.00 0.00 53 1007.7
20260504060147 12 98 3.2 12.9 0.00 0.00 0.00 52 1007.8
20260504050142 11 90 0.0 1.6 0.00 0.00 0.00 60 1008.0
20260504044638 10 96 0.0 1.6 0.00 0.00 0.00 65 1008.1
20260504043131 10 96 0.0 1.6 0.00 0.00 0.00 67 1008.1
20260504041626 10 96 0.0 0.0 0.00 0.00 0.00 67 1008.2
20260504040142 10 96 0.0 0.0 0.00 0.00 0.00 66 1008.3
20260504034639 10 96 0.0 1.6 0.00 0.00 0.00 68 1008.5
20260504033133 10 97 0.0 0.0 0.00 0.00 0.00 68 1008.6
20260504030135 10 97 0.0 0.0 0.00 0.00 0.00 68 1008.6
20260504024631 11 70 0.0 3.2 0.00 0.00 0.00 67 1008.8
20260504023128 11 91 0.0 4.8 0.00 0.00 0.00 68 1009.1
20260504021628 11 91 0.0 12.9 0.00 0.00 0.00 70 1009.4
20260504020128 11 94 6.4 16.1 0.00 0.00 0.00 68 1009.5
20260504014641 12 101 0.0 12.9 0.00 0.00 0.00 60 1009.7
20260504013132 12 107 3.2 19.3 0.00 0.00 0.00 54 1009.2
20260504011626 13 69 6.4 25.7 0.00 0.00 0.00 52 1009.0
20260504010150 13 76 8.0 25.7 0.00 0.00 0.00 49 1008.9
20260504004638 13 342 4.8 17.7 0.00 0.00 0.00 49 1008.6
20260504003137 12 83 3.2 8.0 0.00 0.00 0.00 51 1008.5
20260504001637 12 80 0.0 4.8 0.00 0.00 0.00 53 1008.3
20260504000130 12 77 0.0 1.6 0.00 0.00 0.00 51 1008.2
20260503234627 12 96 3.2 11.3 0.00 0.00 0.00 50 1008.7
20260503233124 12 51 3.2 12.9 0.00 0.00 0.00 48 1008.7
20260503231640 13 98 4.8 19.3 0.00 0.00 0.00 45 1008.6
20260503230138 13 115 0.0 8.0 0.00 0.00 0.00 46 1008.6
20260503224634 13 128 3.2 12.9 0.00 0.00 0.00 45 1008.5
20260503223148 13 110 1.6 9.7 0.00 0.00 0.00 45 1008.4
20260503221639 13 326 3.2 11.3 0.00 0.00 0.00 44 1008.4
20260503220135 13 82 4.8 14.5 0.00 0.00 0.00 44 1008.6